<?xml version="1.0" encoding="UTF-8" standalone="no" ?>
<gpx xmlns="http://www.topografix.com/GPX/1/1" xmlns:xsi="http://www.w3.org/2001/XMLSchema-instance" xsi:schemaLocation="http://www.topografix.com/GPX/1/1 http://www.topografix.com/GPX/1/1/gpx.xsd" version="1.1" creator="VisuGPX - https://www.visugpx.com">
  <metadata>
    <name>GEOCACHES</name>
    <desc><![CDATA[comment ...]]></desc>
  </metadata>
  <trk>
    <name><![CDATA[VAUMALE variante 2]]></name>
    <cmt><![CDATA[17:45:53]]></cmt>
    <desc><![CDATA[comment ...]]></desc>
    <trkseg>
      <trkpt lat="43.96171" lon="5.26489">
        <ele>434.8</ele>
        <time>2020-02-21T16:45:53Z</time>
      </trkpt>
      <trkpt lat="43.96171" lon="5.26489">
        <ele>434.8</ele>
        <time>2020-02-21T16:45:53Z</time>
      </trkpt>
      <trkpt lat="43.96179" lon="5.26483">
        <ele>436</ele>
        <time>2020-02-21T16:45:53Z</time>
      </trkpt>
      <trkpt lat="43.96197" lon="5.26493">
        <ele>440.5</ele>
        <time>2020-02-21T16:45:53Z</time>
      </trkpt>
      <trkpt lat="43.96219" lon="5.26488">
        <ele>450.2</ele>
        <time>2020-02-21T16:45:53Z</time>
      </trkpt>
      <trkpt lat="43.96226" lon="5.26492">
        <ele>454.7</ele>
        <time>2020-02-21T16:45:53Z</time>
      </trkpt>
      <trkpt lat="43.96226" lon="5.26492">
        <ele>454.7</ele>
        <time>2020-02-21T16:45:53Z</time>
      </trkpt>
      <trkpt lat="43.96231" lon="5.26469">
        <ele>452.2</ele>
        <time>2020-02-21T16:45:53Z</time>
      </trkpt>
      <trkpt lat="43.96235" lon="5.26461">
        <ele>452.1</ele>
        <time>2020-02-21T16:45:53Z</time>
      </trkpt>
      <trkpt lat="43.96237" lon="5.26448">
        <ele>449.5</ele>
        <time>2020-02-21T16:45:53Z</time>
      </trkpt>
      <trkpt lat="43.96255" lon="5.26428">
        <ele>448.8</ele>
        <time>2020-02-21T16:45:53Z</time>
      </trkpt>
      <trkpt lat="43.96263" lon="5.26422">
        <ele>449.7</ele>
        <time>2020-02-21T16:45:53Z</time>
      </trkpt>
      <trkpt lat="43.96279" lon="5.26394">
        <ele>446.9</ele>
        <time>2020-02-21T16:45:53Z</time>
      </trkpt>
      <trkpt lat="43.96279" lon="5.26394">
        <ele>446.9</ele>
        <time>2020-02-21T16:45:53Z</time>
      </trkpt>
      <trkpt lat="43.96294" lon="5.26382">
        <ele>447.4</ele>
        <time>2020-02-21T16:45:53Z</time>
      </trkpt>
      <trkpt lat="43.96305" lon="5.26378">
        <ele>447.6</ele>
        <time>2020-02-21T16:45:53Z</time>
      </trkpt>
      <trkpt lat="43.96307" lon="5.26355">
        <ele>443.5</ele>
        <time>2020-02-21T16:45:53Z</time>
      </trkpt>
      <trkpt lat="43.96307" lon="5.2634">
        <ele>444.1</ele>
        <time>2020-02-21T16:45:53Z</time>
      </trkpt>
      <trkpt lat="43.96297" lon="5.26342">
        <ele>445.2</ele>
        <time>2020-02-21T16:45:53Z</time>
      </trkpt>
      <trkpt lat="43.96295" lon="5.26323">
        <ele>447.1</ele>
        <time>2020-02-21T16:45:53Z</time>
      </trkpt>
      <trkpt lat="43.96295" lon="5.26323">
        <ele>447.1</ele>
        <time>2020-02-21T16:45:53Z</time>
      </trkpt>
      <trkpt lat="43.96283" lon="5.26319">
        <ele>450.1</ele>
        <time>2020-02-21T16:45:53Z</time>
      </trkpt>
      <trkpt lat="43.96279" lon="5.26302">
        <ele>453.6</ele>
        <time>2020-02-21T16:45:53Z</time>
      </trkpt>
      <trkpt lat="43.96265" lon="5.26282">
        <ele>461.1</ele>
        <time>2020-02-21T16:45:53Z</time>
      </trkpt>
      <trkpt lat="43.96246" lon="5.26264">
        <ele>469</ele>
        <time>2020-02-21T16:45:53Z</time>
      </trkpt>
      <trkpt lat="43.96236" lon="5.26261">
        <ele>470.6</ele>
        <time>2020-02-21T16:45:53Z</time>
      </trkpt>
      <trkpt lat="43.96193" lon="5.26233">
        <ele>480.3</ele>
        <time>2020-02-21T16:45:53Z</time>
      </trkpt>
      <trkpt lat="43.96143" lon="5.2622">
        <ele>487.8</ele>
        <time>2020-02-21T16:45:53Z</time>
      </trkpt>
      <trkpt lat="43.96143" lon="5.2622">
        <ele>487.8</ele>
        <time>2020-02-21T16:45:53Z</time>
      </trkpt>
      <trkpt lat="43.96139" lon="5.26256">
        <ele>491</ele>
        <time>2020-02-21T16:45:53Z</time>
      </trkpt>
      <trkpt lat="43.96142" lon="5.26294">
        <ele>490.2</ele>
        <time>2020-02-21T16:45:53Z</time>
      </trkpt>
      <trkpt lat="43.9614" lon="5.26308">
        <ele>489.7</ele>
        <time>2020-02-21T16:45:53Z</time>
      </trkpt>
      <trkpt lat="43.96116" lon="5.26339">
        <ele>488.4</ele>
        <time>2020-02-21T16:45:53Z</time>
      </trkpt>
      <trkpt lat="43.96071" lon="5.26372">
        <ele>486.7</ele>
        <time>2020-02-21T16:45:53Z</time>
      </trkpt>
      <trkpt lat="43.96059" lon="5.26371">
        <ele>487.2</ele>
        <time>2020-02-21T16:45:53Z</time>
      </trkpt>
      <trkpt lat="43.96038" lon="5.26378">
        <ele>488.3</ele>
        <time>2020-02-21T16:45:53Z</time>
      </trkpt>
    </trkseg>
  </trk>
</gpx>